Zurück zum Katalog

FENGYUN 1C DEB

AktivSSO
NORAD 32221·DEBRIS·🇨🇳 China

Gestartet May 10, 1999 von Taiyuan Satellite Launch Center

Loading…

Nächste Überflüge (nächste 24 Stunden)

TLE

AktuellSource: Space-Track

Epoche: Sep 13, 2026, 10:10 UTC

1 32221U 99025CVT 26256.42426566  .00000492  00000-0  10038-3 0  9991
2 32221  98.6015  60.6876 0144853  19.8850 340.7914 14.59458667 11937

Verfolge FENGYUN 1C DEB in Echtzeit mit AllMySat

Download on the App Store